Home > Weather > Melbourne > Past weeks

Flag for Australia Weather for the Past 2 Weeks in Melbourne, Victoria, Australia

Now
63 °F

Partly sunny.


Feels Like: 63 °F
Forecast: 62 / 79 °F
Wind: 7 mph from Southeast

Location: Melbourne Airport

Current Time: Feb 9, 2016 at 8:43:31 AM

Latest Report: Feb 9, 2016 at 8:00 AM


Visibility: N/A

Pressure: 30.18 "Hg

Humidity: 68%

Dew point: 52 °F

Location of MelbourneLocation

Historic Weather in Melbourne — Graph

°F

Melbourne Temperature Yesterday

Maximum temperature yesterday: 75 °F (at 3:00 PM)
Minimum temperature yesterday: 61 °F (at 4:30 AM)
Average temperature yesterday: 67 °F

High & Low Weather Summary for the Past Weeks

 TemperatureHumidityPressure
High90 °F (Feb 2, 2:30 PM)100% (Jan 29, 2:00 AM)30.21 "Hg (Jan 29, 2:00 AM)
Low50 °F (Feb 1, 4:30 AM)22% (Feb 6, 6:00 PM)29.50 "Hg (Jan 28, 4:30 PM)
Average68 °F69%29.85 "Hg
* Reported Jan 25 7:00 AM — Feb 9 7:00 AM, Melbourne, Weather by CustomWeather, © 2016

Note: Actual official high and low records may vary slightly from our data, if they occured in-between our weather recording intervals... More about our weather records

Advertising

Melbourne Weather History for the Previous 24 Hours

 ConditionsComfort  
Time TempWeatherWind HumidityBarometerVisibility
7:00 AM
Tue, Feb 9
63 °FPartly sunny.10 mph68%30.15 "HgN/A
6:30 AM63 °FPassing clouds.12 mph73%30.15 "HgN/A
6:00 AM63 °FPassing clouds.12 mph73%30.15 "HgN/A
5:30 AM63 °FPassing clouds.12 mph73%30.15 "HgN/A
5:00 AM63 °FPassing clouds.9 mph73%30.15 "HgN/A
4:00 AM64 °FPassing clouds.13 mph68%30.15 "HgN/A
3:30 AM64 °FPassing clouds.10 mph68%30.15 "HgN/A
3:00 AM64 °FPassing clouds.10 mph68%30.15 "HgN/A
2:30 AM64 °FPassing clouds.10 mph68%30.15 "HgN/A
2:00 AM63 °FPassing clouds.8 mph73%30.15 "HgN/A
1:30 AM64 °FPassing clouds.8 mph73%30.18 "HgN/A
1:00 AM64 °FPassing clouds.10 mph73%30.18 "HgN/A
12:30 AM64 °FPassing clouds.9 mph73%30.18 "HgN/A
12:00 AM64 °FPassing clouds.14 mph73%30.21 "HgN/A
11:00 PM
Mon, Feb 8
64 °FPassing clouds.12 mph73%30.21 "HgN/A
10:30 PM64 °FPassing clouds.13 mph73%30.21 "HgN/A
10:00 PM64 °FPassing clouds.13 mph73%30.21 "HgN/A
9:30 PM64 °FPassing clouds.12 mph73%30.21 "HgN/A
9:00 PM64 °FPassing clouds.14 mph73%30.18 "HgN/A
8:30 PM64 °FClear.13 mph73%30.18 "Hg10 mi
8:00 PM66 °FSunny.15 mph68%30.18 "Hg10 mi
7:30 PM68 °FSunny.15 mph64%30.15 "Hg10 mi
7:00 PM70 °FSunny.16 mph57%30.15 "Hg10 mi
6:30 PM70 °FSunny.16 mph57%30.15 "Hg10 mi
6:00 PM72 °FSunny.16 mph57%30.15 "Hg10 mi
5:30 PM73 °FSunny.15 mph50%30.15 "Hg10 mi
5:00 PM72 °FSunny.14 mph53%30.15 "Hg10 mi
4:30 PM73 °FSunny.17 mph53%30.15 "Hg10 mi
4:00 PM75 °FSunny.15 mph50%30.15 "Hg10 mi
3:00 PM75 °FSunny.14 mph47%30.15 "Hg10 mi
2:00 PM73 °FPassing clouds.13 mph50%30.18 "HgN/A
1:30 PM72 °FScattered clouds.10 mph53%30.18 "HgN/A
1:00 PM72 °FPartly sunny.10 mph53%30.18 "HgN/A
12:00 PM70 °FPartly sunny.9 mph60%30.18 "HgN/A
11:30 AM70 °FPartly sunny.8 mph60%30.21 "HgN/A
11:00 AM70 °FPartly sunny.9 mph60%30.21 "HgN/A
10:30 AM68 °FBroken clouds.9 mph64%30.21 "HgN/A
10:00 AM66 °FOvercast.9 mph73%30.18 "HgN/A
9:30 AM66 °FMore clouds than sun.9 mph73%30.18 "HgN/A
9:00 AM66 °FMore clouds than sun.8 mph78%30.18 "HgN/A
8:30 AM64 °FPartly sunny.8 mph83%30.18 "HgN/A
8:00 AM64 °FPartly sunny.7 mph83%30.15 "HgN/A
Weather by CustomWeather, © 2016

See weather overviewHow to use our weather pages